Location: Unspecified
(41.1850°N, 73.2650°W)
Time: 02:42:33
(UTC+00:00)

SL-08 R/B - Pass Details

Date: 16 March 2026
Orbit: 946 x 992 km, 83.0° (Epoch: 13 April)

Event Time Altitude Azimuth Distance (km) Brightness Sun altitude
Exits shadow 01:03:50 35° 58° (ENE) 1,481 5.1 -23.7°
Drops below altitude 10° 01:08:01 10° 22° (NNE) 2,674 6.8 -24.5°
Sets 01:10:39 0° 15° (NNE) 3,623 7.6 -24.9°
